Find Local Weather

World > North America > United States > New Mexico

Socorro, New Mexico Regional Weather

Lat: 34.06N, Lon: 106.9W
Wx Zone: NMZ520
Warning FLW WEATHER ALERT - (More Info. Click Here) Warning
Feedback
Expires:201807231800;;935134
ASUS45 KABQ 231710
RWRNM 
NEW MEXICO REGIONAL WEATHER ROUNDUP
NATIONAL WEATHER SERVICE ALBUQUERQUE NM
1100 AM MDT MON JUL 23 2018

NOTE: "FAIR" MEANS FEW OR NO CLOUDS BELOW 12,000 FEET AGL WITH NO
       SIGNIFICANT WEATHER OR OBSTRUCTIONS TO VISION.

      THIS PRODUCT IS RELEASED AS TWO VERSIONS.  ONE VERSION NEAR
      THE TOP OF THE HOUR CONTAINING PRELIMINARY DATA FROM ALBUQUERQUE
      AND OTHER STATIONS.  A FINAL VERSION WITH ADDITIONAL DATA IS 
      ISSUED ABOUT 10 MINUTES AFTER THE HOUR.
 

NMZ519>523-231800-
CENTRAL VALLEYS/CENTRAL HIGHLANDS
  
CITY           SKY/WX    TMP DP  RH WIND       PRES   REMARKS
ALBUQUERQUE    FAIR      88  52  29 SE21G26   30.29S                  
DOUBLE EAGLE   MOSUNNY   88  52  29 SE15      30.34R                  
MORIARTY ARPT  FAIR      86  49  28 E16G22    30.40S                  
CLINES CORNERS FAIR      76  52  43 E20G30    30.46R                  
BELEN          FAIR      90  44  20 N10       30.28R                  
SOCORRO        FAIR      90  48  23 NE10G16   30.25S                  

$$

SKY/WX - Weather  TMP - Temperature  DP - Dewpoint  RH - Relative Humidity
WIND - Wind Direction/Speed PRES - Barometric Pressure